www.pogodaiklimat.ru

Погода и климат >> Архив погоды >> Австралия >> Западная Австралия >> Перт Джандакот


ПОГОДА в Перт Джандакот

  • Прогноз погоды в Перт Джандакот
  • Монитор погоды в Перт Джандакот

АРХИВ ПОГОДЫ в Перт Джандакот

Время (UTC), дата Ветер
(напр.,м/с)
 
Видим.   Явления Облачность Т
(С)
Тd
(С)
f
(%)
Тe
(С)
Тes
(С)
Комфортность P
(гПа)
Po
(гПа)
Тmin
(С)
Tmax
(С)
R
(мм)
R24
(мм)
S
(см)
10 17.01 ЮЗ 8 н/о н/о +22.8 +14.6 60 +26 +26 жарко 1013.4 1009.9
12 17.01 ЮЗ 6 н/о н/о +19.9 +14.7 72 +22 +22 комфорт 1015.1 1011.5
13 17.01 Ю 5 н/о н/о +19.4 +14.9 75 +21 +21 комфорт 1015.5 1011.9 +26.1
15 17.01 Ю 3 н/о н/о +17.7 +14.6 82 +18 +18 1015.5 1011.9
16 17.01 Ю 3 н/о н/о +16.4 +14.4 88 +16 +16 1015.7 1012.1
18 17.01 Ю 4 н/о н/о +15.0 +12.3 84 +14 +14 1015.7 1012.1
19 17.01 Ю 4 н/о н/о +14.6 +11.9 84 +13 +13 1015.6 1012.0
21 17.01 ЮВ 1 н/о н/о +12.0 +10.1 88 +12 +12 1016.6 1013.0
22 17.01 ЮВ 5 н/о н/о +16.0 +12.0 77 +15 +15 1016.9 1013.3
00 18.01 ЮВ 5 н/о н/о +20.9 +12.8 60 +23 +23 комфорт 1018.2 1014.6
01 18.01 В 3 н/о н/о +22.6 +13.4 56 +26 +26 жарко 1018.2 1014.6 +11.7
03 18.01 Ю 3 н/о н/о +26.5 +11.8 40 +28 +28 жарко 1017.7 1014.1
04 18.01 Ю 6 н/о н/о +28.9 +11.0 33 +29 +29 жарко 1017.1 1013.5
06 18.01 Ю 5 н/о н/о +32.3 +10.9 27 +32 +32 жарко 1015.6 1012.0
07 18.01 З 8 н/о н/о +29.1 +15.2 43 +32 +32 душно 1015.2 1011.6
09 18.01 ЮЗ 8 н/о н/о +27.6 +12.8 40 +29 +29 жарко 1014.6 1011.0
10 18.01 ЮЗ 6 н/о н/о +27.1 +13.8 44 +29 +29 жарко 1014.7 1011.1
12 18.01 ЮЗ 5 н/о н/о +22.8 +16.4 67 +27 +27 душно 1016.1 1012.5
13 18.01 Ю 3 н/о н/о +21.9 +15.5 67 +26 +26 душно 1016.5 1012.9 +33.4
15 18.01 Ю 3 н/о н/о +19.6 +14.2 71 +22 +22 комфорт 1016.4 1012.8
16 18.01 Ю 2 н/о н/о +17.0 +13.5 80 +18 +18 1016.2 1012.6
18 18.01 В 7 н/о н/о +22.3 +9.1 43 +24 +24 комфорт 1015.8 1012.2
19 18.01 В 6 н/о н/о +21.8 +9.3 45 +23 +23 комфорт 1015.6 1012.0
21 18.01 В 7 н/о н/о +20.5 +7.5 43 +21 +21 комфорт 1015.9 1012.3
22 18.01 В 7 н/о н/о +20.5 +8.5 46 +21 +21 комфорт 1016.1 1012.5
00 19.01 СВ 6 н/о н/о +26.3 +11.6 40 +28 +28 жарко 1016.5 1012.9
01 19.01 В 5 н/о н/о +28.7 +11.7 35 +30 +30 жарко 1016.3 1012.7 +15.4
03 19.01 С 5 н/о н/о +34.6 +12.9 27 +35 +35 очень
жарко
1015.3 1011.7
04 19.01 СВ 4 н/о н/о +36.0 +12.3 24 +36 +36 очень
жарко
1014.5 1010.9
06 19.01 З 7 н/о н/о +38.1 +14.0 24 +39 +39 очень
душно
1012.8 1009.3
07 19.01 ЮЗ 8 н/о н/о +37.6 +13.6 24 +38 +38 очень
жарко
1012.3 1008.8
09 19.01 ЮЗ 8 н/о н/о +35.8 +11.4 23 +35 +35 очень
жарко
1011.7 1008.2
10 19.01 ЮЗ 7 н/о н/о +34.8 +11.9 25 +35 +35 очень
жарко
1012.0 1008.5
12 19.01 Ю 5 н/о н/о +31.4 +12.7 32 +32 +32 жарко 1012.8 1009.3
13 19.01 Ю 4 н/о н/о +29.7 +12.2 34 +31 +31 жарко 1013.4 1009.9 +38.9
15 19.01 Ю 3 н/о н/о +26.2 +13.0 44 +28 +28 жарко 1013.1 1009.6
16 19.01 Ю 4 н/о н/о +24.9 +12.2 45 +27 +27 жарко 1012.7 1009.2
18 19.01 Ю 3 н/о н/о +22.0 +12.5 55 +25 +25 комфорт 1012.0 1008.5
19 19.01 Ю 2 н/о н/о +20.3 +12.3 60 +23 +23 комфорт 1011.8 1008.3
21 19.01 ЮВ 4 н/о н/о +24.6 +12.9 48 +27 +27 жарко 1011.8 1008.3
22 19.01 В 4 н/о н/о +24.2 +13.1 50 +26 +26 жарко 1012.3 1008.8
00 20.01 СВ 4 н/о н/о +31.5 +12.3 31 +32 +32 жарко 1012.7 1009.2
01 20.01 СВ 7 н/о н/о +35.2 +11.6 24 +35 +35 очень
жарко
1012.5 1009.0 +19.7
03 20.01 С 6 н/о н/о +39.8 +11.0 18 +39 +39 очень
жарко
1011.7 1008.2
04 20.01 СЗ 5 н/о н/о +40.6 +10.8 17 +39 +39 очень
жарко
1011.2 1007.7
06 20.01 З 7 н/о н/о +38.2 +13.4 23 +38 +38 очень
жарко
1010.3 1006.8
07 20.01 З 8 н/о н/о +35.7 +12.6 25 +36 +36 очень
жарко
1009.8 1006.3
09 20.01 ЮЗ 7 н/о н/о +36.1 +11.0 22 +35 +35 очень
жарко
1009.2 1005.7
10 20.01 ЮЗ 5 н/о н/о +32.4 +13.6 32 +34 +34 очень
жарко
1009.4 1005.9
12 20.01 З 6 н/о н/о +25.1 +19.7 72 +31 +31 очень
душно
1010.1 1006.6
13 20.01 ЮЗ 4 н/о н/о +24.4 +18.8 71 +29 +29 душно 1010.7 1007.2 +42.1
15 20.01 ЮЗ 3 н/о н/о +22.2 +19.2 83 +28 +28 душно 1010.5 1007.0
16 20.01 ЮЗ 2 н/о н/о +21.7 +19.8 89 +27 +27 душно 1010.3 1006.8
18 20.01 штиль 0 н/о н/о +19.3 +18.3 94 +21 +21 комфорт 1009.4 1005.9
19 20.01 штиль 0 н/о н/о +18.8 +18.0 95 +20 +20 1009.5 1006.0
21 20.01 ЮЗ 2 н/о н/о +18.5 +17.7 95 +20 +20 1009.5 1006.0
22 20.01 Ю 3 н/о н/о +19.6 +18.6 94 +22 +22 комфорт 1010.1 1006.6
00 21.01 Ю 3 н/о н/о +23.1 +19.3 79 +29 +29 очень
душно
1010.8 1007.3
01 21.01 Ю 3 н/о н/о +25.6 +19.3 68 +31 +31 очень
душно
1010.8 1007.3 +17.7
03 21.01 З 6 н/о н/о +28.5 +19.7 59 +34 +34 очень
душно
1010.4 1006.9
04 21.01 З 7 н/о н/о +27.1 +18.4 59 +32 +32 очень
душно
1010.2 1006.7
06 21.01 ЮЗ 7 н/о н/о +28.7 +16.9 49 +32 +32 душно 1009.6 1006.1
07 21.01 ЮЗ 7 н/о н/о +28.5 +17.4 51 +33 +33 очень
душно
1008.9 1005.4
09 21.01 ЮЗ 8 н/о н/о +26.8 +17.0 55 +31 +31 душно 1008.4 1004.9
10 21.01 ЮЗ 8 н/о н/о +25.5 +16.6 58 +29 +29 душно 1008.5 1005.0
12 21.01 ЮЗ 6 н/о н/о +22.2 +17.3 74 +27 +27 душно 1009.3 1005.8
13 21.01 ЮЗ 5 н/о н/о +21.6 +17.2 76 +26 +26 душно 1009.5 1006.0 +29.4
15 21.01 Ю 3 н/о н/о +20.5 +15.9 75 +24 +24 комфорт 1008.9 1005.4
16 21.01 Ю 5 н/о 9/0
[]
+20.9 +14.5 67 +24 +24 комфорт 1008.2 1004.7
18 21.01 Ю 4 н/о н/о +19.1 +13.9 72 +20 +20 1007.5 1004.0
19 21.01 ЮВ 2 н/о н/о +17.5 +13.6 78 +18 +18 1007.3 1003.8
21 21.01 Ю 4 н/о н/о +19.0 +13.8 72 +20 +20 1007.2 1003.7
22 21.01 Ю 5 н/о 10/0
[]
+18.8 +13.4 71 +19 +20 1007.1 1003.6
00 22.01 ЮВ 5 н/о н/о +20.9 +13.1 61 +23 +23 комфорт 1006.7 1003.2
01 22.01 ЮВ 5 н/о 10/0
[]
+22.8 +13.0 54 +26 +29 жарко 1007.0 1003.5 +17.2
03 22.01 ЮВ 6 н/о н/о +24.3 +14.1 53 +27 +27 жарко 1006.2 1002.7
04 22.01 В 3 н/о 1/1 1000 м
[]
+26.4 +14.5 48 +29 +46 жарко 1006.1 1002.6
06 22.01 ЮЗ 3 н/о н/о +28.7 +14.1 41 +31 +31 жарко 1004.2 1000.7
07 22.01 СВ 2 н/о 10/10 1500 м
[]
+28.4 +14.3 42 +31 +31 душно 1003.3 999.8
09 22.01 З 9 н/о н/о +25.6 +17.3 60 +30 +30 душно 1003.3 999.8
10 22.01 ЮЗ 10 н/о 1/1 1500 м
[]
+22.0 +17.2 74 +26 +26 душно 1003.7 1000.2
12 22.01 ЮЗ 10 н/о н/о +18.8 +16.4 86 +19 +19 1005.7 1002.2
13 22.01 ЮЗ 9 н/о 9/9 300 м
[]
+18.3 +14.0 76 +18 +18 1006.5 1003.0 +30.3
15 22.01 ЮЗ 8 н/о н/о +17.6 +14.1 80 +17 +17 1005.7 1002.2
16 22.01 ЮЗ 7 н/о 10/10 300 м
[]
+17.8 +14.3 80 +17 +17 1005.2 1001.7
18 22.01 ЮЗ 9 н/о н/о +17.0 +13.5 80 +16 +16 1004.8 1001.3
19 22.01 ЮЗ 7 н/о в посл. час снег 10/10 600 м
[]
+16.9 +12.2 74 +16 +16 1004.6 1001.1
21 22.01 ЮЗ 3 н/о н/о +17.1 +12.2 73 +17 +17 1004.5 1001.0
22 22.01 З 3 н/о 4/0 2000 м
[]
+16.9 +12.2 74 +17 +17 1004.7 1001.2
00 23.01 СЗ 8 н/о н/о +18.3 +13.4 73 +18 +18 1005.4 1001.9
01 23.01 З 10 н/о 10/10 600 м
[]
+17.5 +13.0 75 +16 +16 1005.5 1002.0 +16.1
03 23.01 З 13 н/о н/о +21.0 +11.6 55 +22 +22 комфорт 1006.4 1002.9
04 23.01 З 13 н/о 6/6 600 м
[]
+20.4 +10.8 54 +21 +21 комфорт 1006.4 1002.9
06 23.01 З 13 н/о н/о +20.1 +13.8 67 +21 +21 комфорт 1006.6 1003.1
07 23.01 З 12 н/о 10/10 600 м
[]
+21.3 +14.2 64 +24 +24 комфорт 1006.1 1002.6
09 23.01 З 12 н/о н/о +19.2 +13.6 70 +19 +19 1006.8 1003.3
10 23.01 З 10 н/о в посл. час снег 9/9 600 м
[]
+18.3 +14.0 76 +18 +18 1007.4 1003.9
12 23.01 ЮЗ 8 н/о н/о +16.4 +14.9 91 +15 +15 1008.9 1005.4
13 23.01 ЮЗ 9 6000 м ливневой дождь {туман} 10/10 300 м
[]
+15.7 +13.7 88 +14 +14 1009.5 1006.0 +22.4
15 23.01 ЮЗ 7 н/о н/о +15.5 +13.9 90 +14 +14 1010.4 1006.9
16 23.01 ЮЗ 6 н/о ливневой дождь {туман} 10/10 600 м
[]
+16.2 +13.7 85 +15 +15 1010.4 1006.9
18 23.01 ЮЗ 5 н/о н/о +15.3 +13.8 91 +14 +14 1010.6 1007.1
19 23.01 ЮЗ 5 н/о ливневой дождь {туман} 10/10 600 м
[]
+15.8 +13.6 87 +15 +15 1010.8 1007.3
21 23.01 ЮЗ 4 н/о н/о +14.9 +13.4 91 +14 +14 1011.5 1008.0
22 23.01 ЮЗ 4 н/о ливневой дождь {туман} 10/10 300 м
[]
+14.6 +14.0 96 +13 +13 1012.0 1008.5
00 24.01 Ю 5 н/о н/о +15.4 +14.6 95 +14 +14 1013.4 1009.9
01 24.01 Ю 5 н/о ливневой дождь {туман} 10/10 300 м
[]
+16.3 +15.0 92 +15 +15 1013.7 1010.2 +14.6
03 24.01 ЮЗ 7 н/о н/о +17.4 +14.9 85 +16 +16 1014.2 1010.6
04 24.01 Ю 8 н/о {туман} 10/10 600 м
[]
+18.1 +14.0 77 +17 +17 1014.4 1010.8
06 24.01 ЮЗ 7 н/о н/о +19.5 +11.8 61 +20 +20 1014.0 1010.5
07 24.01 Ю 6 н/о {туман} 10/10 600 м
[]
+19.7 +12.5 63 +21 +21 комфорт 1013.8 1010.3
09 24.01 ЮЗ 6 н/о н/о +19.7 +11.2 58 +21 +21 комфорт 1013.8 1010.3
10 24.01 ЮЗ 7 н/о н/о +19.5 +10.8 57 +20 +20 1013.9 1010.4

 

Местоположение метеостанции Перт Джандакот (Западная Австралия, Австралия): широта -32.10 долгота 115.88 высота над уровнем моря 31 м.

В архиве по умолчанию представлена погода в Перт Джандакот за последнюю неделю. Архивные данные за месяц целиком и за предыдущие месяцы, начиная с января 2011 года, Вы можете получить, выбрав интересующий диапазон дат из раскрывающегося списка и нажав кнопку "Ввод!".


*Определитесь, кто Вы:
робот инопланетянин человек

Внимание! Время в таблицах - всемирное. Для получения местного времени необходимо прибавить поправку, которая равна 8 ч.

Смотрите также архив погоды в соседних городах и на ближайших метеорологических станциях:

Погода в Суонборне (Западная Австралия, Австралия) (20 км)
Погода в Перт Монт-Лоули (Западная Австралия, Австралия) (20 км)
Погода в Перте (Западная Австралия, Австралия) (20 км)
Погода в Гусберри Хилл (Западная Австралия, Австралия) (23 км)
Погода на Острове Гарден (Западная Австралия, Австралия) (24 км)
Погода в Обсерватории Перт (Западная Австралия, Австралия) (25 км)
Погода на Острове Роттнест (Западная Австралия, Австралия) (37 км)
Погода в Ошен Риф (Западная Австралия, Австралия) (40 км)
Погода в Мандуре (Западная Австралия, Австралия) (49 км)
Погода в Буллсбрук Пирс (Западная Австралия, Австралия) (50 км)

Пояснения к столбцам:

Ветер - указаны скорость ветра в м/с - средняя за 10 мин, порывы в срок и между сроками (в фигурных скобках) и направление, откуда дует ветер: С - северный, СВ - северо-восточный, В - восточный, ЮВ - юго-восточный, Ю - южный, ЮЗ - юго-западный, З - западный, СЗ - северо-западный.
Видимость - горизонтальная дальность видимости в метрах или километрах. При видимости от 1 до 10 км при отсутствии осадков обычно наблюдается дымка, при ухудшении видимости до 1 км и менее - туман. В сухую погоду видимость может ухудшаться дымом, пылью или мглою.
Явления - указаны атмосферные явления, наблюдавшиеся в срок или в последний час перед сроком; фигурными скобками обозначены явления, наблюдавшиеся между сроками (за 1-3 часа до срока); квадратными скобками обозначены град или гололедные отложения с указанием их диаметра в мм.
Облачность - указаны через наклонную черту общая и нижняя облачность в баллах и высота нижней границы облаков в метрах; квадратными скобками обозначены формы облаков: Ci - перистые, Cs - перисто-слоистые, Cc - перисто-кучевые, Ac - высококучевые, As - высокослоистые, Sc - слоисто-кучевые, Ns - слоисто-дождевые, Cu - кучевые, Cb - кучево-дождевые. Подробнее классификацию облаков см. в Атласе облаков (PDF).
T - Температура воздуха - температура, измеренная на высоте 2 м над землей.
Td - Температура точки росы - температура, при понижении до которой содержащийся в воздухе водяной пар достигнет насыщения.
f - Относительная влажность воздуха - влажноcть воздуха, измеренная на высоте 2 м над землей.
Te - Эффективная температура - температура, которую ощущает одетый по сезону человек в тени. Характеристика душности погоды. При расчете учитывается влияние влажности воздуха и скорости ветра на теплоощущения человека.
Tes - Эффективная температура на солнце - температура, которую ощущает человек, с поправкой на солнечный нагрев. Характеристика знойности погоды. Зависит от высоты солнца над горизонтом, облачности и скорости ветра. Ночью, в пасмурную погоду, а также при ветре 12 м/с и более поправка равна нулю.
P - Атмосферное давление - приведенное к уровню моря атмосферное давление.
Po - Атмосферное давление - измеренное на уровне метеостанции атмосферное давление.
Tmin - Минимальная температура - минимум температуры воздуха на высоте 2 м над землей.
Tmax - Максимальная температура - максимум температуры воздуха на высоте 2 м над землей.
R - Количество осадков - Количество выпавших осадков за период времени, мм. При наведении курсора мыши на число - период времени, за который выпало указанное количество осадков.
R24 - Количество осадков - Количество выпавших осадков за 24 часа, мм.
S - Снежный покров - Высота снежного покрова, см. При наведении курсора мыши на число - состояние снежного покрова и степень покрытия местности в баллах.